Webcam zuid Meer informatie Webcam zuid


Onweer radar  blitzortung! Fire index


Regen radar Meer informatie rain snow radar


Bezoek onze andere website:

Andere tamplate

Andere tamplate


U vindt ons ook hier:

Het Weer Aktueel

UK Metoffice

European Weather Network

WeatherCloud

Weather Underground

AWEKAS

Citizen Weather Observer Program (CWOP)

HAMweather, WeatherForYou, PWS Weather

Wetterpage 24

Roosendaal op internet

VWKWEB

RadioZuidWestFM



Het weer levert geen direct gevaar op.    Er zijn geen waarschuwingen afgegeven.

Weather Underground Historische gegevens

Dagelijkse Samenvatting februari 23, 2018 Eenheden:  Metrisch    Engels   Beide
« Vorige Dag
Volgende Dag »
Dagelijkse Wekelijkse Maandelijkse Jaarlijkse Aangepaste
  Huidig: Hoog: Laag: Gemiddeld:
Temperatuur: -17 °C -17.8 °C -19.1 °C -17.6 °C
Dauwpunt: -20.7 °C -17.8 °C -20.7 °C -19.8 °C
Vochtigheid: 61 % Humidity % 53 % 76 %
Wind snelheid: 7.6 km/h 0 km/h 2.3 km/h 15.9 km/h
Windvlaag: 31.1 km/h 0 km/h - -
Wind:ENE - - ENE
Luchtdruk: 34577.8 hPa 0 hPa 34554.1 hPa -
Neerslag: 0 mm      
Historical Graphs
 
 
Tabel voor februari 23, 2018
Tijd Temperatuur Dauwpunt Luchtdruk Wind Wind snelheid Windvlaag Vochtigheid Regenval per uur
-17.8 °C -17.8 °C 0 hPa Calm     Humidity % 0 mm
00:09 -18.2 °C -19.4 °C 34659.1 hPa East 15.6 km/h 31.1 km/h 85 % 0 mm
00:19 -18.3 °C -19.4 °C 34659.1 hPa NNW 10.3 km/h 15.6 km/h 86 % 0 mm
00:29 -18.3 °C -19.4 °C 34669.3 hPa ENE 15.6 km/h 28.5 km/h 86 % 0 mm
00:39 -18.3 °C -19.4 °C 34669.3 hPa ENE 10.3 km/h 23.3 km/h 87 % 0 mm
00:49 -18.3 °C -19.4 °C 34669.3 hPa ENE 5.1 km/h 23.3 km/h 87 % 0 mm
00:59 -18.4 °C -19.4 °C 34659.1 hPa ENE 2.3 km/h 23.3 km/h 87 % 0 mm
01:09 -18.3 °C -19.4 °C 34659.1 hPa East 12.7 km/h 23.3 km/h 87 % 0 mm
01:19 -18.3 °C -19.4 °C 34659.1 hPa ENE 12.7 km/h 18.2 km/h 87 % 0 mm
01:29 -18.3 °C -19.4 °C 34659.1 hPa ENE 5.1 km/h 20.8 km/h 87 % 0 mm
01:39 -18.3 °C -19.4 °C 34645.6 hPa ENE 10.3 km/h 18.2 km/h 87 % 0 mm
01:49 -18.4 °C -19.4 °C 34659.1 hPa East 12.7 km/h 23.3 km/h 87 % 0 mm
01:59 -18.4 °C -19.4 °C 34645.6 hPa ENE 10.3 km/h 20.8 km/h 87 % 0 mm
02:09 -18.4 °C -19.4 °C 34659.1 hPa ENE 10.3 km/h 23.3 km/h 87 % 0 mm
02:19 -18.4 °C -19.4 °C 34659.1 hPa NE 2.3 km/h 28.5 km/h 87 % 0 mm
02:29 -18.4 °C -19.4 °C 34659.1 hPa ENE 10.3 km/h 20.8 km/h 87 % 0 mm
02:39 -18.4 °C -19.5 °C 34659.1 hPa ENE 10.3 km/h 15.6 km/h 87 % 0 mm
02:49 -18.4 °C -19.5 °C 34645.6 hPa ENE 10.3 km/h 12.9 km/h 87 % 0 mm
02:59 -18.5 °C -19.4 °C 34645.6 hPa ENE 10.3 km/h 18.2 km/h 88 % 0 mm
03:09 -18.5 °C -19.4 °C 34645.6 hPa East 2.3 km/h 20.8 km/h 88 % 0 mm
03:19 -18.6 °C -19.5 °C 34645.6 hPa ENE 10.3 km/h 18.2 km/h 88 % 0 mm
03:29 -18.6 °C -19.6 °C 34645.6 hPa NE 12.7 km/h 25.9 km/h 88 % 0 mm
03:39 -18.6 °C -19.6 °C 34645.6 hPa NE 10.3 km/h 12.9 km/h 88 % 0 mm
03:49 -18.7 °C -19.6 °C 34645.6 hPa ENE 15.6 km/h 20.8 km/h 88 % 0 mm
03:59 -18.7 °C -19.7 °C 34645.6 hPa ENE 12.7 km/h 18.2 km/h 88 % 0 mm
04:09 -18.7 °C -19.7 °C 34635.4 hPa ENE 5.1 km/h 15.6 km/h 88 % 0 mm
04:19 -18.8 °C -19.7 °C 34635.4 hPa ENE 15.6 km/h 15.6 km/h 88 % 0 mm
04:29 -18.8 °C -19.7 °C 34635.4 hPa NE 10.3 km/h 18.2 km/h 88 % 0 mm
04:39 -18.8 °C -19.7 °C 34635.4 hPa ENE 10.3 km/h 20.8 km/h 88 % 0 mm
04:49 -18.8 °C -19.7 °C 34635.4 hPa East 5.1 km/h 18.2 km/h 88 % 0 mm
04:59 -18.8 °C -19.7 °C 34635.4 hPa ENE 12.7 km/h 18.2 km/h 89 % 0 mm
05:09 -18.8 °C -19.7 °C 34635.4 hPa ENE 2.3 km/h 15.6 km/h 89 % 0 mm
05:19 -18.9 °C -19.8 °C 34635.4 hPa NE 5.1 km/h 12.9 km/h 89 % 0 mm
05:29 -18.9 °C -19.8 °C 34635.4 hPa ENE 7.6 km/h 20.8 km/h 89 % 0 mm
05:39 -18.9 °C -19.8 °C 34635.4 hPa ENE 15.6 km/h 18.2 km/h 89 % 0 mm
05:49 -19 °C -19.9 °C 34635.4 hPa NE 7.6 km/h 15.6 km/h 89 % 0 mm
05:59 -19 °C -19.9 °C 34635.4 hPa ENE 2.3 km/h 7.7 km/h 89 % 0 mm
06:09 -19 °C -19.8 °C 34635.4 hPa NE 5.1 km/h 18.2 km/h 90 % 0 mm
06:19 -19.1 °C -19.8 °C 34635.4 hPa ENE 10.3 km/h 18.2 km/h 90 % 0 mm
06:29 -19.1 °C -19.8 °C 34635.4 hPa ENE 10.3 km/h 20.8 km/h 90 % 0 mm
06:39 -19.1 °C -19.8 °C 34635.4 hPa East 10.3 km/h 18.2 km/h 90 % 0 mm
06:49 -19.1 °C -19.8 °C 34645.6 hPa ENE 12.7 km/h 20.8 km/h 90 % 0 mm
06:59 -19.1 °C -19.8 °C 34645.6 hPa ENE 7.6 km/h 18.2 km/h 90 % 0 mm
07:09 -19.1 °C -19.8 °C 34645.6 hPa ENE 5.1 km/h 18.2 km/h 91 % 0 mm
07:19 -19.1 °C -19.8 °C 34645.6 hPa NE 2.3 km/h 10.3 km/h 91 % 0 mm
07:29 -19.1 °C -19.8 °C 34645.6 hPa ENE 2.3 km/h 12.9 km/h 91 % 0 mm
07:39 -19.1 °C -19.8 °C 34645.6 hPa NE 5.1 km/h 15.6 km/h 91 % 0 mm
07:49 -19.1 °C -19.8 °C 34645.6 hPa ENE 7.6 km/h 12.9 km/h 91 % 0 mm
07:59 -19.1 °C -19.8 °C 34645.6 hPa ENE 10.3 km/h 18.2 km/h 91 % 0 mm
08:09 -19.1 °C -19.7 °C 34645.6 hPa ENE 10.3 km/h 15.6 km/h 92 % 0 mm
08:19 -19.1 °C -19.7 °C 34645.6 hPa East 10.3 km/h 18.2 km/h 92 % 0 mm
08:29 -19 °C -19.6 °C 34645.6 hPa ENE 12.7 km/h 18.2 km/h 92 % 0 mm
08:39 -18.9 °C -19.6 °C 34645.6 hPa East 12.7 km/h 15.6 km/h 92 % 0 mm
08:49 -18.8 °C -19.4 °C 34645.6 hPa East 12.7 km/h 18.2 km/h 92 % 0 mm
08:59 -18.7 °C -19.3 °C 34645.6 hPa East 10.3 km/h 20.8 km/h 92 % 0 mm
09:09 -18.5 °C -19.1 °C 34645.6 hPa NE 10.3 km/h 18.2 km/h 92 % 0 mm
09:19 -18.3 °C -19.1 °C 34659.1 hPa ENE 17.9 km/h 20.8 km/h 91 % 0 mm
09:29 -18.2 °C -18.9 °C 34645.6 hPa ENE 17.9 km/h 28.5 km/h 90 % 0 mm
09:39 -18 °C -18.9 °C 34645.6 hPa ENE 12.7 km/h 25.9 km/h 89 % 0 mm
09:49 -17.8 °C -18.8 °C 34645.6 hPa ENE 12.7 km/h 25.9 km/h 88 % 0 mm
09:59 -17.7 °C -18.8 °C 34645.6 hPa ENE 20.9 km/h 25.9 km/h 86 % 0 mm
10:09 -17.5 °C -18.8 °C 34645.6 hPa ENE 15.6 km/h 28.5 km/h 84 % 0 mm
10:19 -17.4 °C -19.1 °C 34645.6 hPa ENE 20.9 km/h 36.2 km/h 81 % 0 mm
10:29 -17.3 °C -19.1 °C 34645.6 hPa ENE 20.9 km/h 36.2 km/h 79 % 0 mm
10:39 -17.3 °C -19.4 °C 34645.6 hPa East 28.5 km/h 38.8 km/h 76 % 0 mm
10:49 -17.3 °C -19.4 °C 34645.6 hPa NE 26.2 km/h 49.2 km/h 76 % 0 mm
10:59 -17.3 °C -19.6 °C 34645.6 hPa East 26.2 km/h 41.4 km/h 74 % 0 mm
11:09 -17.1 °C -19.4 °C 34635.4 hPa ENE 26.2 km/h 51.8 km/h 73 % 0 mm
11:19 -16.9 °C -19.4 °C 34635.4 hPa ESE 15.6 km/h 46.7 km/h 72 % 0 mm
11:29 -17.3 °C -19.8 °C 34635.4 hPa ENE 38.8 km/h 49.2 km/h 72 % 0 mm
11:39 -17 °C -19.6 °C 34635.4 hPa ENE 33.6 km/h 36.2 km/h 71 % 0 mm
11:49 -16.7 °C -19.6 °C 34625.2 hPa East 28.5 km/h 46.7 km/h 69 % 0 mm
11:59 -16.8 °C -19.8 °C 34625.2 hPa East 41.7 km/h 41.7 km/h 67 % 0 mm
12:09 -16.8 °C -19.8 °C 34625.2 hPa East 26.2 km/h 36.2 km/h 67 % 0 mm
12:19 -16.8 °C -20.1 °C 34635.4 hPa East 38.8 km/h 57 km/h 65 % 0 mm
12:29 -16.8 °C -20.1 °C 34625.2 hPa ESE 26.2 km/h 51.8 km/h 65 % 0 mm
12:39 -16.7 °C -19.8 °C 34611.7 hPa NE 49.2 km/h 49.2 km/h 66 % 0 mm
12:49 -16.7 °C -20.1 °C 34625.2 hPa NE 33.6 km/h 51.8 km/h 64 % 0 mm
12:59 -16.7 °C -19.9 °C 34611.7 hPa ENE 26.2 km/h 41.4 km/h 65 % 0 mm
13:09 -16.6 °C -20.1 °C 34611.7 hPa East 31.4 km/h 54.4 km/h 63 % 0 mm
13:19 -16.6 °C -20.2 °C 34611.7 hPa ENE 31.4 km/h 46.7 km/h 62 % 0 mm
13:29 -16.4 °C -20 °C 34601.5 hPa ENE 20.9 km/h 38.8 km/h 62 % 0 mm
13:39 -16.3 °C -19.9 °C 34601.5 hPa East 33.6 km/h 36.2 km/h 62 % 0 mm
13:49 -16.3 °C -19.6 °C 34601.5 hPa ENE 20.9 km/h 46.7 km/h 65 % 0 mm
13:59 -16.3 °C -19.7 °C 34601.5 hPa East 23 km/h 38.8 km/h 64 % 0 mm
14:09 -16.3 °C -19.9 °C 34591.4 hPa ENE 10.3 km/h 41.4 km/h 62 % 0 mm
14:19 -16.2 °C -20.1 °C 34591.4 hPa East 20.9 km/h 46.7 km/h 60 % 0 mm
14:29 -16.2 °C -20.2 °C 34577.8 hPa ENE 28.5 km/h 38.8 km/h 59 % 0 mm
14:39 -16.1 °C -20.3 °C 34577.8 hPa East 20.9 km/h 59.5 km/h 57 % 0 mm
14:49 -15.9 °C -20.3 °C 34577.8 hPa East 20.9 km/h 33.6 km/h 56 % 0 mm
14:59 -15.9 °C -20.6 °C 34577.8 hPa NE 20.9 km/h 46.7 km/h 54 % 0 mm
15:09 -15.9 °C -20.6 °C 34577.8 hPa ESE 20.9 km/h 31.1 km/h 54 % 0 mm
15:19 -15.8 °C -20.7 °C 34577.8 hPa ENE 33.6 km/h 38.8 km/h 53 % 0 mm
15:29 -15.8 °C -20.7 °C 34567.7 hPa ENE 5.1 km/h 38.8 km/h 53 % 0 mm
15:39 -15.7 °C -20.6 °C 34577.8 hPa East 20.9 km/h 41.4 km/h 53 % 0 mm
15:49 -15.8 °C -20.4 °C 34567.7 hPa ENE 20.9 km/h 33.6 km/h 54 % 0 mm
15:59 -15.8 °C -20.3 °C 34567.7 hPa ENE 31.4 km/h 36.2 km/h 55 % 0 mm
16:09 -15.8 °C -20.3 °C 34554.1 hPa ENE 20.9 km/h 31.1 km/h 56 % 0 mm
16:19 -15.9 °C -20.1 °C 34554.1 hPa East 31.4 km/h 31.4 km/h 58 % 0 mm
16:29 -15.9 °C -20.1 °C 34554.1 hPa NE 23 km/h 41.4 km/h 58 % 0 mm
16:39 -16 °C -19.9 °C 34554.1 hPa ENE 20.9 km/h 36.2 km/h 60 % 0 mm
16:49 -16.1 °C -19.9 °C 34554.1 hPa ENE 15.6 km/h 33.6 km/h 61 % 0 mm
16:59 -16.2 °C -19.8 °C 34554.1 hPa ENE 17.9 km/h 36.2 km/h 62 % 0 mm
17:09 -16.2 °C -20 °C 34554.1 hPa ENE 15.6 km/h 20.8 km/h 61 % 0 mm
17:19 -16.2 °C -20.1 °C 34554.1 hPa East 31.4 km/h 36.2 km/h 60 % 0 mm
17:29 -16.3 °C -20.2 °C 34554.1 hPa NE 23 km/h 23.3 km/h 60 % 0 mm
17:39 -16.3 °C -20.1 °C 34554.1 hPa NE 10.3 km/h 20.8 km/h 61 % 0 mm
17:49 -16.4 °C -20.2 °C 34554.1 hPa East 5.1 km/h 12.9 km/h 61 % 0 mm
17:59 -16.6 °C -20.1 °C 34567.7 hPa East 17.9 km/h 18.2 km/h 63 % 0 mm
18:09 -16.7 °C -20.1 °C 34567.7 hPa ENE 12.7 km/h 15.6 km/h 64 % 0 mm
18:19 -16.7 °C -20.2 °C 34567.7 hPa NE 17.9 km/h 28.5 km/h 63 % 0 mm
18:29 -16.7 °C -20.6 °C 34567.7 hPa East 17.9 km/h 25.9 km/h 60 % 0 mm
18:39 -16.7 °C -20.4 °C 34577.8 hPa ENE 5.1 km/h 15.6 km/h 61 % 0 mm
18:49 -16.9 °C -20.4 °C 34577.8 hPa NE 5.1 km/h 10.3 km/h 63 % 0 mm
18:59 -17.1 °C -20.2 °C 34577.8 hPa East 15.6 km/h 18.2 km/h 66 % 0 mm
19:09 -17.1 °C -20.4 °C 34577.8 hPa ENE 10.3 km/h 28.5 km/h 64 % 0 mm
19:19 -17 °C -20.6 °C 34577.8 hPa ENE 26.2 km/h 38.8 km/h 62 % 0 mm
19:29 -17 °C -20.7 °C 34577.8 hPa ENE 7.6 km/h 31.1 km/h 61 % 0 mm
MeteoRoosendaalWest
Gegevens verzameld door Weather Underground - 2 mb

Script ontwikkeld door  Jim McMurry - jmcmurry@mwt.net Aangepast voor de template door  Wim van der Kuil - Leuven-Template.eu

Apparatuur in gebruik:

Weerstation
Davis VP2

Weerprogramma
Meteobridge

Weercomputer
Shuttle

Webleverancier
WeservIT

Davis VP2

Meteobridge

Shuttle

WeservIT